Riverside, CA

8:06 PM PST on February 12, 2016 (GMT -0800)
Riverside Municipal

Weather History for KRAL - September, 2011

Change the Weather History Date:

Thursday, September 15, 2011

  Actual Average Record
Temperature  
Mean Temperature 74 °F 76 °F  
Max Temperature 87 °F 91 °F 108 °F (1917)
Min Temperature 61 °F 62 °F 37 °F (1902)
Degree Days  
Heating Degree Days 0 0  
Month to date heating degree days 0 0  
Since 1 July heating degree days 0 0  
Cooling Degree Days 9 11  
Month to date cooling degree days 201 190  
Year to date cooling degree days 1393 1448  
Growing Degree Days 23 (Base 50)    
Moisture  
Dew Point 59 °F    
Average Humidity 64    
Maximum Humidity 90    
Minimum Humidity 37    
Precipitation  
Precipitation 0.00 in 0.01 in 1.83 in (2015)
Month to date precipitation 0.04 0.09  
Year to date precipitation 4.58 9.43  
Since 1 July precipitation 0.38  
Snow  
Snow 0.00 in - - ()
Month to date snowfall 0.0  
Year to date snowfall 0.0  
Snow Depth 0.00 in    
Sea Level Pressure  
Sea Level Pressure 29.86 in    
Wind  
Wind Speed 4 mph (West)    
Max Wind Speed 15 mph    
Max Gust Speed 20 mph    
Visibility 6 miles    
Events      
T = Trace of Precipitation, MM = Missing Value Source: NWS Daily Summary

Daily Weather History Graph

Daily Weather History Graph

Search for Another Location

Airport or City:

Trip Planner

Search our weather history database for the weather conditions in past years. The results will help you decide how hot, cold, wet, or windy it might be!

Date:

Astronomy

Sep. 15, 2011 Rise Set
Actual Time 6:32 AM PDT 6:56 PM PDT
Civil Twilight 6:07 AM PDT 7:21 PM PDT
Nautical Twilight 5:38 AM PDT 7:50 PM PDT
Astronomical Twilight 5:08 AM PDT 8:20 PM PDT
Moon 8:28 PM PDT (9/15) 9:32 AM PDT (9/15)
Length of Visible Light 13h 13m
Length of Day
12h 23m
Waning Gibbous, 90% of the Moon is Illuminated
Sep 15
Waning Gibbous
Sep 20
Last Quarter
Sep 27
New
Oct 3
First Quarter
Oct 11
Full

Hourly Weather History & Observations

Time (PDT) Temp. Heat Index Dew Point Humidity Pressure Visibility Wind Dir Wind Speed Gust Speed Precip Events Conditions
2:53 AM 63.0 °F - 57.9 °F 84% 29.86 in 6.0 mi Calm Calm - N/A   Haze
4:28 AM 62.6 °F - 57.2 °F 82% 29.90 in 5.0 mi Calm Calm - N/A   Scattered Clouds
5:05 AM 62.6 °F - 57.2 °F 82% 29.90 in 4.0 mi West 3.5 mph - N/A   Mostly Cloudy
5:53 AM 62.1 °F - 59.0 °F 90% 29.86 in 4.0 mi Calm Calm - N/A   Overcast
6:53 AM 62.1 °F - 59.0 °F 90% 29.87 in 2.0 mi Calm Calm - N/A   Overcast
7:53 AM 62.1 °F - 59.0 °F 90% 29.88 in 2.0 mi Calm Calm - N/A   Overcast
8:53 AM 62.1 °F - 59.0 °F 90% 29.89 in 2.0 mi West 3.5 mph - N/A   Overcast
9:51 AM 64.4 °F - 59.0 °F 83% 29.94 in 2.5 mi Calm Calm - N/A   Haze
9:53 AM 64.9 °F - 59.0 °F 81% 29.90 in 2.5 mi WSW 4.6 mph - N/A   Haze
10:23 AM 66.2 °F - 59.0 °F 78% 29.94 in 3.0 mi West 4.6 mph - N/A   Haze
10:53 AM 70.0 °F - 59.0 °F 68% 29.89 in 3.0 mi Variable 3.5 mph - N/A   Haze
11:53 AM 75.0 °F - 59.0 °F 57% 29.87 in 4.0 mi West 4.6 mph - N/A   Haze
1:53 PM 84.0 °F 83.0 °F 55.9 °F 38% 29.81 in 7.0 mi WNW 4.6 mph - N/A   Partly Cloudy
3:53 PM 84.9 °F 83.9 °F 57.0 °F 38% 29.78 in 10.0 mi West 11.5 mph 18.4 mph N/A   Clear
4:53 PM 82.0 °F 82.0 °F 57.9 °F 44% 29.78 in 10.0 mi West 13.8 mph 19.6 mph N/A   Partly Cloudy
5:53 PM 77.0 °F - 59.0 °F 54% 29.78 in 10.0 mi West 9.2 mph - N/A   Partly Cloudy
6:53 PM 73.0 °F - 59.0 °F 61% 29.80 in 10.0 mi West 10.4 mph - N/A   Scattered Clouds
7:53 PM 69.1 °F - 59.0 °F 70% 29.82 in 10.0 mi West 5.8 mph - N/A   Clear
8:53 PM 66.9 °F - 59.0 °F 76% 29.85 in 10.0 mi West 4.6 mph - N/A   Clear
9:53 PM 66.0 °F - 59.0 °F 78% 29.86 in 9.0 mi West 3.5 mph - N/A   Clear
10:53 PM 64.0 °F - 59.0 °F 84% 29.86 in 7.0 mi West 5.8 mph - N/A   Clear
11:53 PM 63.0 °F - 59.0 °F 87% 29.87 in 5.0 mi West 3.5 mph - N/A   Clear